BEIJING 1 (TSINGHUA) 1 28890U 05043A 25198.86102596 .00000231 00000-0 54377-4 0 9997 2 28890 98.2473 326.2123 0013486 245.8828 114.0963 14.63183535 51739 HJ-1A 1 33320U 08041A 25198.87051358 .00000896 00000-0 11675-3 0 9992 2 33320 97.6418 193.4847 0020112 151.8539 208.3767 14.82784640908949 HJ-1B 1 33321U 08041B 25198.91219825 .00000693 00000-0 92072-4 0 9999 2 33321 97.6301 197.5708 0036511 197.9426 162.0501 14.82314211908965 YAOGAN 4 1 33446U 08061A 25198.37148610 .00000828 00000-0 11052-3 0 9990 2 33446 97.9043 130.1622 0016099 81.8778 278.4261 14.82113742896054 DEIMOS 1 1 35681U 09041A 25198.80562675 .00000469 00000-0 77423-4 0 9997 2 35681 97.7036 6.4357 0001771 136.7895 223.3454 14.74640184857593 DMC 2 1 35683U 09041C 25198.86334133 .00000608 00000-0 97127-4 0 9999 2 35683 97.8366 338.1784 0001175 88.8745 271.2599 14.75191496857310 RISAT 1 1 38248U 12017A 25198.55294317 .00015666 00000-0 36741-3 0 9995 2 38248 97.4884 227.9880 0000467 192.8261 167.2974 15.42157261730177 DMC 3-FM1 1 40715U 15032A 25198.89318790 .00000462 00000-0 60064-4 0 9990 2 40715 97.6940 71.3204 0007104 77.4803 282.7207 14.85119377540285 DMC 3-FM2 1 40716U 15032B 25198.84719851 .00000452 00000-0 59081-4 0 9995 2 40716 97.6996 72.6194 0008275 83.2878 276.9278 14.84990440540275 DMC 3-FM3 1 40717U 15032C 25198.80262004 .00000349 00000-0 46890-4 0 9994 2 40717 97.7050 74.1092 0006987 82.3826 277.8182 14.85119895540275